Location: B
(0.0000°N, 0.0000°E)
Time: 03:56:41
(UTC+01:00)

ISS - All Passes

Search period start: 26 October 2014 00:00
Search period end: 04 November 2014 23:00
Orbit: 412 x 416 km, 51.6° (Epoch: 25 October)

Date Brightness Start Highest point End Pass type
(mag) Time Alt. Az. Time Alt. Az. Time Alt. Az.
26 Oct - 10:10:25 10° SW 10:13:37 49° NW 10:16:49 10° NNE daylight
26 Oct - 21:45:41 10° NW 21:49:00 83° WSW 21:52:19 10° SSE night (unlit)
27 Oct - 09:21:11 10° SSW 09:24:27 58° SE 09:27:42 10° NE daylight
27 Oct - 20:56:44 10° NNW 20:59:48 35° NE 21:02:53 10° ESE night (unlit)
28 Oct - 08:32:33 10° S 08:35:14 23° SE 08:37:55 10° ENE daylight
28 Oct - 10:10:53 10° WNW 10:11:43 11° NW 10:12:33 10° NW daylight
28 Oct - 20:08:33 10° NNE 20:10:34 15° NE 20:12:35 10° E night (unlit)
28 Oct - 21:44:51 10° W 21:47:02 16° SW 21:49:14 10° SSW night (unlit)
29 Oct - 09:19:40 10° WSW 09:22:26 24° NW 09:25:12 10° N daylight
29 Oct - 20:54:38 10° NW 20:57:45 38° SW 21:00:53 10° SSE visible
30 Oct - 08:29:52 10° SW 08:33:09 65° NW 08:36:25 10° NNE daylight
30 Oct - 20:05:09 10° NNW 20:08:27 75° NE 20:11:45 10° SE visible
31 Oct - 07:40:39 10° SSW 07:43:49 44° SE 07:46:59 10° NE daylight
31 Oct - 19:16:13 10° N 19:19:06 27° NE 19:21:59 10° ESE visible
01 Nov - 06:52:05 10° S 06:54:27 18° SE 06:56:48 10° E daylight
01 Nov - 08:29:11 10° W 08:30:55 14° NW 08:32:38 10° NNW daylight
01 Nov - 18:28:20 10° NNE 18:29:42 12° NE 18:31:04 10° ENE daylight
01 Nov - 20:03:37 10° WNW 20:06:10 21° SW 20:08:43 10° S visible
02 Nov - 07:38:31 10° WSW 07:41:30 31° NW 07:44:28 10° N daylight
02 Nov - 19:13:30 10° NW 19:16:44 51° SW 19:19:58 10° SSE visible
03 Nov - 06:48:45 10° SW 06:52:03 87° NW 06:55:21 10° NE daylight
03 Nov - 18:24:02 10° NNW 18:27:16 55° NE 18:30:32 10° SE daylight
04 Nov - 05:59:33 10° SSW 06:02:35 33° SE 06:05:36 10° ENE visible
04 Nov - 17:35:10 10° N 17:37:47 21° NE 17:40:23 10° ESE daylight
04 Nov - 19:13:03 10° WSW 19:14:15 12° SW 19:15:26 10° SSW visible
